Wind_Speed
27 28 29 29 29 29 30 31 31 30 28 27 28 29 30 30 30 29 28 29 30 28 27 27 28 28 29 29 28 27 27 26 26 26 27 27 28 28 29 30 29 27 27 26 25 24 23 22 21 22 22 22 21 22 22 23 23 22 21 21 21 21 21 21 21 21 20 20 20 19 18 18 18 17 17 17 17 17 18 19 20 21 21 22 23
25 27 27 28 28 26 26 29 29 28 27 29 30 29 29 31 31 29 28 27 29 29 28 28 27 27 28 28 28 28 28 28 28 27 28 28 29 29 30 30 29 28 27 27 27 25 24 23 22 22 22 22 22 22 23 23 23 23 22 22 21 21 21 21 21 21 20 20 21 20 19 19 19 18 17 17 18 18 19 20 21 22 22 23 24
23 25 26 26 25 23 23 25 27 26 25 27 28 27 28 30 31 30 29 28 29 29 29 28 26 26 28 27 27 27 28 28 28 28 28 29 29 30 31 30 30 28 28 28 27 26 24 23 22 22 22 22 22 23 24 24 24 23 23 22 22 21 21 21 21 21 21 20 21 20 19 19 19 18 18 18 19 19 20 21 22 22 23 23 24
22 23 24 24 23 21 20 22 25 25 24 24 24 24 25 29 29 29 29 30 29 29 29 29 27 26 27 29 29 29 29 28 27 28 29 29 30 30 31 30 29 28 28 28 27 26 25 24 23 23 24 24 23 24 24 24 24 24 24 23 22 21 21 21 21 21 21 20 20 20 19 18 18 18 18 19 19 20 22 23 23 23 23 24 24
20 22 23 23 21 16 15 19 24 24 22 21 21 21 22 24 26 27 28 29 30 30 29 30 30 27 27 28 31 31 30 29 27 28 29 30 30 31 31 30 29 28 28 28 28 27 26 25 24 25 25 25 24 24 25 25 25 25 25 23 22 21 20 20 20 20 19 19 19 18 17 17 17 17 18 20 21 22 23 23 23 23 23 24 24
20 20 21 22 20 15 11 13 18 20 19 18 19 19 19 21 23 25 27 28 29 29 29 29 30 30 27 27 29 30 29 28 28 28 29 30 31 32 30 29 29 29 28 28 28 28 27 25 26 26 26 26 25 25 25 25 25 25 25 23 22 21 20 19 19 18 18 19 19 18 17 17 18 18 20 21 22 22 22 22 22 23 23 24 25
21 20 19 19 18 17 13 9 10 12 13 14 15 17 19 21 23 24 26 26 27 28 28 27 28 29 28 27 27 28 27 28 29 30 31 31 32 31 30 29 29 29 28 28 28 28 27 26 26 27 27 26 25 25 25 25 25 25 25 23 23 23 22 20 20 20 20 21 21 19 19 19 20 20 21 22 22 23 23 24 24 24 25 26 27
21 21 20 19 17 16 15 13 11 10 11 12 14 15 17 19 22 24 25 25 26 27 28 27 27 27 28 27 27 26 26 28 29 31 32 32 31 30 29 29 29 28 27 28 28 28 27 26 26 26 27 27 26 25 25 25 25 25 23 23 24 24 23 22 23 23 23 24 23 22 22 22 22 23 23 24 25 25 25 26 26 26 27 28 29
20 21 21 20 19 18 16 16 15 14 13 14 15 17 18 18 19 21 23 25 27 28 29 29 29 28 28 28 27 26 26 27 28 30 31 32 31 29 29 29 29 28 27 27 28 29 28 27 27 26 27 27 26 25 25 25 26 24 23 25 26 25 25 26 26 26 25 25 25 24 24 24 24 25 26 26 27 27 27 28 28 29 29 29 30
20 20 20 20 19 19 19 18 18 18 18 17 18 18 20 21 21 21 21 23 26 28 29 30 30 30 29 29 28 28 28 28 28 29 31 32 30 29 30 30 30 30 31 30 29 30 29 28 27 27 27 27 26 26 26 26 26 25 25 27 28 28 29 30 28 27 26 24 24 24 24 24 25 26 27 27 28 28 28 28 29 29 29 30 30
20 20 20 20 19 19 19 19 19 20 20 21 20 20 21 22 23 24 23 23 25 27 28 29 29 30 31 31 31 30 30 31 30 30 31 31 30 30 30 30 30 33 34 32 30 29 29 29 27 27 27 26 24 25 26 27 27 26 27 28 30 31 31 30 28 26 25 24 24 24 24 25 25 26 27 27 27 27 27 28 28 29 30 31 32
21 21 20 20 20 19 19 19 19 19 20 21 22 22 22 23 24 26 27 27 27 27 28 29 29 29 30 32 33 32 31 32 32 31 31 30 30 32 32 32 32 33 32 30 28 28 29 29 28 27 27 26 24 25 27 27 26 26 28 29 30 30 29 27 26 25 25 25 25 25 25 26 26 26 27 27 28 28 29 29 30 31 32 33 34
23 22 22 22 22 21 20 20 19 19 20 21 22 23 23 24 24 25 27 29 28 28 28 29 29 28 29 31 33 33 32 33 33 32 30 30 30 32 33 33 32 30 28 27 27 28 29 29 28 28 28 27 27 28 29 29 28 27 27 28 28 28 27 27 26 26 26 26 26 26 26 27 27 28 28 29 30 30 30 30 31 32 32 33 35
26 25 24 23 23 23 23 22 21 20 20 21 22 23 24 25 25 25 27 29 28 28 28 28 28 29 29 30 34 35 33 34 35 32 30 30 29 30 32 33 33 29 27 27 28 30 30 28 28 29 29 29 29 29 30 30 30 29 27 27 28 28 28 28 28 28 27 27 27 28 28 29 29 30 30 31 31 31 32 32 32 33 34 35 37
28 28 26 25 24 24 25 24 23 22 22 21 21 22 24 25 25 24 26 28 27 27 28 29 28 29 29 29 34 37 34 33 36 34 31 30 30 29 31 33 33 31 28 27 29 30 29 28 28 29 30 30 31 30 30 29 29 29 28 27 28 29 30 30 30 29 29 29 29 30 31 31 31 31 31 31 32 33 34 35 35 36 37 38 39
30 30 29 27 25 25 25 25 25 24 23 23 22 22 23 24 24 24 25 26 26 25 27 29 29 29 29 29 34 38 35 34 36 34 32 31 31 30 31 32 32 32 30 29 30 30 29 29 29 30 31 31 31 30 30 29 28 28 29 28 27 29 30 31 31 31 31 31 31 32 32 32 32 32 33 33 34 35 37 38 38 38 39 40 41
29 30 31 29 27 26 25 25 25 26 26 25 24 23 23 23 24 24 24 24 24 24 27 28 29 30 28 28 34 40 37 35 37 36 33 32 32 32 33 32 33 33 31 30 30 31 31 30 30 30 30 30 30 30 30 29 28 28 28 27 28 30 31 32 32 32 32 32 32 32 33 34 34 35 36 37 37 38 40 40 40 40 40 40 40
29 30 30 30 29 27 26 25 26 26 27 27 26 25 24 24 24 24 24 24 23 23 24 25 28 29 28 30 36 40 38 37 39 38 36 34 33 34 35 35 35 34 33 32 32 32 33 32 31 30 30 30 30 30 30 31 30 30 30 31 32 35 35 35 34 34 33 33 33 33 34 36 37 38 39 40 40 40 40 40 40 40 39 38 39
30 31 31 30 29 28 27 26 26 26 27 28 28 27 26 26 25 24 24 25 24 23 23 25 29 30 30 35 41 42 40 39 40 41 40 37 34 35 36 36 36 35 33 33 34 34 33 32 31 31 31 31 31 31 31 32 33 34 35 37 38 38 36 35 34 34 35 35 35 35 37 38 39 40 41 41 40 39 39 40 41 40 40 39 40
32 32 33 32 32 31 30 29 29 28 28 29 30 29 28 27 26 25 25 26 25 24 23 26 31 33 34 38 45 47 43 38 37 41 43 39 35 35 36 36 35 34 33 32 32 33 33 32 32 32 33 33 33 33 33 33 35 36 37 37 37 36 35 34 34 35 36 36 36 37 38 39 39 39 39 39 39 39 40 41 40 40 40 40 40
34 34 34 34 34 33 33 32 32 31 29 29 31 31 30 29 28 27 27 26 25 25 24 24 26 31 37 40 43 46 44 38 36 39 42 38 34 34 35 35 35 36 36 33 31 30 31 31 32 33 34 34 34 34 34 34 36 37 37 36 36 35 34 33 34 35 37 37 38 39 40 40 39 38 37 38 39 41 42 41 40 40 40 40 40
37 36 36 35 35 35 34 34 34 33 32 30 31 32 32 31 29 28 27 26 25 26 27 26 24 24 31 39 41 42 43 41 38 38 37 35 34 34 34 35 37 38 37 35 33 32 33 34 34 34 33 31 31 31 32 34 35 35 36 36 36 35 34 34 34 36 37 39 40 41 41 40 39 39 39 41 42 42 41 40 39 40 40 41 41
40 40 39 38 37 37 37 35 34 34 34 32 31 32 33 33 31 29 28 28 26 26 28 30 27 23 23 30 36 39 40 41 41 38 35 36 36 33 31 33 35 35 33 33 34 34 36 37 38 37 35 33 32 32 32 34 36 36 36 37 36 36 35 35 36 36 38 41 42 42 42 41 41 42 43 42 42 41 40 40 40 41 42 43 44
44 44 42 41 40 40 39 38 37 35 35 34 33 32 32 33 33 31 29 29 28 27 27 28 28 26 23 22 27 34 36 36 37 37 36 36 35 33 32 32 33 32 32 32 32 33 34 35 36 37 38 37 37 37 37 39 40 40 39 38 37 37 37 38 40 40 42 43 44 44 44 44 43 43 42 41 41 41 41 42 43 44 44 45 44
46 46 45 44 43 42 41 41 40 38 37 36 35 34 32 33 34 33 31 29 28 27 27 26 26 26 25 22 23 29 34 34 33 34 35 35 35 35 35 34 33 33 33 33 33 33 32 33 34 35 37 38 39 39 39 40 41 41 41 40 39 40 41 43 44 44 44 44 44 44 44 43 42 42 42 42 42 43 44 45 45 44 44 43 43
45 46 46 45 45 44 43 43 43 42 40 39 37 35 34 34 35 35 33 29 27 27 27 26 24 23 23 21 20 24 31 35 35 35 35 35 36 36 37 36 35 35 36 36 36 35 35 35 36 36 37 38 39 39 39 40 41 42 42 41 41 42 43 44 44 43 42 42 42 42 43 44 43 43 44 44 45 45 46 45 44 43 43 43 43
43 44 44 45 45 45 45 45 44 44 44 42 40 37 36 36 37 37 35 32 29 28 27 27 24 22 21 22 21 22 25 28 31 33 34 34 36 36 35 35 35 35 35 35 33 32 33 35 36 36 36 37 38 40 42 43 43 44 45 46 47 46 46 45 44 43 42 41 42 43 44 45 45 46 46 47 47 47 46 44 43 43 43 44 45
42 42 42 43 43 44 45 45 45 45 46 46 45 42 39 38 38 39 38 35 31 29 28 28 27 25 24 25 26 26 26 26 27 29 31 32 35 35 34 34 34 35 35 35 33 33 34 34 35 36 38 39 40 41 43 44 44 44 45 48 49 49 48 47 45 43 42 43 44 45 45 45 46 47 47 47 46 45 44 43 43 43 44 44 44
41 41 41 41 41 41 43 44 45 45 46 46 47 46 43 41 39 39 39 38 34 31 30 30 30 29 29 28 29 29 30 30 30 30 29 29 31 33 34 35 36 36 38 39 40 40 40 38 39 40 42 42 43 43 43 43 42 41 42 43 45 45 45 45 44 44 44 44 45 45 45 45 45 45 45 45 45 44 43 43 43 43 44 44 45
43 42 42 42 41 40 41 42 43 44 45 45 45 44 43 41 40 38 38 38 36 34 32 31 32 32 31 30 30 31 32 32 33 33 31 29 29 31 32 34 35 36 40 43 45 45 44 43 42 44 45 45 45 45 43 42 40 39 40 40 41 41 42 42 43 43 43 43 44 44 44 44 44 45 45 45 44 43 43 43 43 43 44 44 46
46 45 44 44 43 42 42 41 41 42 43 43 43 41 39 37 37 36 36 36 36 35 32 30 30 32 32 31 31 31 32 32 33 33 33 32 32 32 32 33 33 36 40 45 46 47 47 46 46 47 47 46 44 43 41 41 40 40 39 38 38 39 40 40 41 41 42 43 43 43 44 44 45 44 44 43 43 43 43 43 43 44 45 46 48
48 48 48 47 46 46 45 44 42 41 41 42 42 41 39 36 35 34 34 34 35 34 33 32 32 32 33 34 34 34 34 34 34 34 34 34 34 34 34 34 35 37 41 45 46 46 47 48 47 44 42 39 37 36 36 36 36 36 36 36 37 39 40 42 42 43 43 44 44 44 44 44 44 43 43 42 43 43 43 43 44 45 46 48 49
45 47 48 48 48 48 47 46 46 44 44 43 43 42 40 38 36 34 34 34 35 34 35 36 37 36 36 37 39 39 38 37 36 37 37 37 36 34 33 34 36 37 39 39 39 38 38 39 38 36 35 34 34 34 34 33 34 34 35 37 39 41 43 44 44 44 44 44 44 44 43 43 43 43 43 43 43 43 43 44 45 46 47 48 49
39 41 43 45 46 46 46 46 46 46 46 46 45 44 42 41 38 36 35 35 35 35 35 37 39 40 41 42 42 42 41 39 38 38 38 38 37 35 31 30 30 30 29 29 29 29 30 30 31 32 34 36 36 36 36 36 36 37 38 40 42 43 44 45 45 44 44 43 43 43 43 43 43 43 43 43 43 43 44 45 46 47 48 49 50
30 32 34 37 39 41 43 43 43 43 44 45 46 45 44 43 41 39 37 36 36 36 36 36 37 39 40 42 43 43 42 41 40 39 38 38 38 37 33 30 30 30 30 30 31 33 32 31 31 33 35 36 37 37 37 37 37 38 40 41 43 44 44 44 44 43 43 43 43 43 43 43 43 43 43 43 43 44 45 46 47 48 49 50 51
23 24 26 28 31 33 35 37 38 39 40 41 42 42 42 42 41 40 38 37 36 36 36 36 36 37 38 39 41 41 41 41 41 40 39 38 38 38 36 35 35 35 36 38 39 38 36 34 34 35 36 38 39 39 38 38 38 39 40 42 43 44 44 44 43 43 44 44 44 44 44 43 43 42 42 43 43 44 45 46 47 48 49 50 52
20 21 21 22 23 25 28 30 32 34 35 37 37 38 38 38 39 38 37 37 36 35 35 36 37 38 38 39 39 40 40 41 41 41 41 41 40 40 40 40 39 39 39 40 41 40 39 39 39 39 39 39 40 40 40 39 39 39 40 42 43 45 46 46 46 45 45 44 44 43 43 42 42 42 42 43 43 44 45 46 47 49 50 52 53
21 20 20 20 20 21 22 24 26 29 31 33 34 35 35 36 36 36 36 36 35 34 34 35 37 39 41 41 40 39 38 39 41 42 43 43 43 43 42 42 42 42 43 43 44 44 44 43 42 41 40 40 40 40 40 40 40 40 41 43 44 46 46 46 45 44 43 43 42 41 41 41 41 41 42 42 42 43 45 46 48 49 51 52 54
21 21 20 20 20 20 20 20 22 24 26 29 31 34 35 35 35 35 35 35 36 36 35 35 35 37 39 41 42 42 40 39 38 40 42 44 45 45 45 45 45 46 47 47 47 47 46 45 43 41 41 41 41 41 41 41 41 42 42 43 44 44 43 42 42 41 41 40 40 39 40 40 40 40 41 41 42 44 45 47 48 50 51 52 53
21 20 20 20 20 20 20 20 20 20 22 23 26 29 32 34 36 36 36 35 35 36 36 36 36 36 37 39 40 42 43 42 40 40 41 42 43 44 44 45 45 46 47 47 47 46 46 45 44 43 43 42 42 42 42 42 42 42 42 41 41 40 40 40 39 39 39 38 38 38 39 39 39 40 41 42 43 44 46 47 48 49 50 50 49
22 21 21 21 21 21 20 20 20 20 20 21 22 24 26 29 32 35 37 38 37 36 36 36 36 36 36 37 37 38 40 41 41 41 41 42 43 43 44 45 45 45 46 46 47 47 47 47 47 46 45 45 44 44 44 44 43 43 42 40 39 39 38 38 37 37 37 37 37 37 38 38 39 40 41 42 43 44 45 46 46 46 46 46 46
24 23 22 22 22 22 22 21 21 21 21 20 21 21 22 24 26 29 32 35 38 39 38 38 37 36 35 35 35 36 37 38 39 39 39 39 40 41 42 44 45 46 46 46 46 47 47 47 47 48 48 48 48 47 47 45 43 41 40 38 37 37 36 35 35 35 35 35 36 36 37 38 38 39 40 41 42 42 43 43 43 43 42 42 42
25 24 23 23 22 22 23 22 22 22 22 21 21 21 22 22 23 24 26 28 31 34 37 38 38 38 37 36 35 35 35 35 36 37 37 37 37 38 39 40 41 42 43 43 44 44 44 44 44 45 45 44 44 43 41 39 38 36 35 34 34 34 33 33 33 33 34 34 35 35 36 36 37 37 38 38 39 39 40 40 39 39 39 39 38
28 25 24 23 23 23 23 23 23 23 23 22 22 22 22 22 22 23 23 24 25 27 30 32 34 35 35 36 36 37 36 36 35 34 34 34 35 35 35 36 36 37 37 38 39 39 39 39 39 39 39 38 37 36 35 34 33 32 31 31 31 31 31 31 31 32 32 33 33 33 34 34 34 35 35 35 36 36 37 36 36 35 36 36 35
31 28 26 24 23 23 23 24 24 24 24 24 23 23 23 22 22 22 23 24 24 25 26 27 28 29 30 31 32 34 36 37 38 37 36 35 34 33 33 33 33 33 34 34 35 35 35 35 35 35 34 34 33 33 32 31 30 29 29 28 28 28 29 29 30 30 30 30 30 31 31 31 31 31 32 33 33 34 33 33 32 33 33 33 33
34 32 29 26 25 24 24 24 25 25 25 25 25 25 24 24 24 23 23 24 24 25 25 25 25 26 26 26 26 27 29 31 34 36 37 38 37 37 36 35 34 33 33 33 33 33 33 33 32 32 31 31 30 30 29 28 28 27 27 27 27 27 27 27 27 27 28 28 28 28 28 28 29 29 30 31 31 31 30 30 31 31 31 31 31
35 34 32 30 27 26 25 25 25 26 26 27 27 27 27 26 26 25 25 24 24 25 25 25 25 25 25 24 24 24 25 25 26 28 31 33 35 36 36 36 36 35 35 35 34 33 33 32 31 31 30 29 28 28 27 27 26 26 26 25 25 25 25 25 25 26 26 26 26 26 26 27 27 28 28 28 28 28 29 29 29 29 29 29 29
33 34 34 32 31 29 27 27 26 27 27 28 28 29 29 29 28 28 27 26 25 25 25 25 25 25 24 23 23 23 23 23 24 24 25 26 28 30 31 32 33 33 33 33 33 33 32 31 30 29 28 27 27 26 25 25 25 24 24 24 23 23 23 24 24 25 25 25 25 25 25 26 26 26 26 26 27 27 28 28 28 28 27 27 27
31 31 32 33 32 31 30 29 28 28 28 29 29 30 30 31 31 30 30 28 27 26 25 25 25 25 24 23 22 22 23 23 23 23 23 23 24 25 26 27 27 28 28 29 29 29 29 28 28 27 26 26 25 25 24 24 23 23 22 22 22 22 23 23 24 24 24 24 24 24 24 24 25 25 25 25 26 26 26 26 26 26 26 26 26
29 30 30 31 32 32 32 31 30 30 29 29 30 30 31 32 32 33 32 31 29 27 25 24 24 24 24 23 22 21 22 22 22 23 22 22 23 23 23 24 24 24 25 25 25 25 25 25 25 25 25 24 24 23 23 22 22 21 21 21 22 22 23 23 23 23 23 23 23 23 24 24 24 24 24 24 24 25 25 25 25 25 25 25 25
29 29 29 30 30 31 31 32 32 32 31 31 31 31 31 32 32 33 33 33 31 28 26 24 23 23 23 23 21 20 20 21 21 22 22 22 21 21 22 22 23 23 23 24 24 24 24 24 24 23 23 23 22 22 21 21 20 20 21 21 22 23 23 23 22 22 21 22 22 23 23 23 23 23 23 23 23 23 24 24 24 24 23 23 23
Wind_Direction
273 272 274 277 278 271 261 252 245 242 242 243 242 241 240 241 244 248 249 243 240 241 241 240 239 238 239 239 238 239 239 237 236 239 243 248 252 254 256 258 261 262 261 259 254 249 246 246 247 248 250 252 253 254 256 259 261 263 265 266 267 267 269 271 274 274 273 272 271 269 267 265 265 264 263 263 264 266 268 270 272 273 273 272 271
278 276 278 283 282 274 261 250 242 241 244 244 240 239 239 240 240 244 246 242 241 244 245 243 242 242 244 243 242 242 241 239 238 239 242 246 249 252 254 258 261 262 260 258 254 249 246 244 244 247 250 253 255 256 258 260 262 264 265 265 265 265 267 269 271 272 271 270 269 267 264 263 263 262 261 261 263 265 268 271 272 274 275 274 274
283 282 283 287 283 269 256 247 241 241 247 246 240 239 241 241 241 242 244 245 244 245 245 243 241 244 247 246 245 243 242 241 240 240 241 242 245 248 252 257 259 259 258 256 251 247 244 243 244 247 251 253 256 258 260 262 263 264 264 263 262 262 263 265 268 270 270 269 267 266 264 262 261 261 261 262 265 267 270 272 273 274 275 275 275
291 290 289 291 285 270 254 245 239 241 248 246 240 241 242 242 241 243 248 249 246 244 243 241 241 243 246 248 249 247 245 244 243 243 242 241 242 245 248 253 255 256 256 253 248 244 243 242 245 248 251 253 255 256 259 261 262 263 263 261 259 260 261 262 264 267 269 268 267 266 265 263 262 261 262 263 265 267 269 271 273 274 275 276 276
294 295 294 296 295 282 259 243 238 242 248 246 243 244 243 240 240 243 247 249 248 247 246 247 247 245 245 248 249 248 245 243 243 241 241 241 242 243 245 248 250 251 251 249 246 243 241 241 245 248 250 252 253 254 257 259 260 261 261 260 259 259 259 260 262 265 267 267 266 264 263 261 260 260 261 262 264 266 268 270 273 274 275 275 275
293 294 295 298 301 299 277 240 231 237 242 242 243 244 241 240 240 242 245 248 249 249 249 251 250 247 246 247 247 246 243 239 238 238 239 241 243 243 243 245 246 247 248 247 245 243 242 241 245 249 252 254 254 255 257 258 259 260 261 261 260 259 257 257 259 261 262 262 261 259 258 256 255 256 258 261 263 265 267 269 270 272 273 273 274
294 293 293 296 300 301 298 278 249 245 248 249 251 249 245 244 244 245 246 248 249 247 247 249 248 245 244 244 245 246 242 237 235 236 238 241 243 243 242 243 245 246 246 246 244 244 244 244 246 250 254 256 256 256 257 258 260 260 262 264 262 259 257 255 255 256 256 257 257 256 256 256 256 257 258 260 262 264 265 266 267 269 271 273 274
291 293 294 294 294 294 294 292 284 275 269 266 266 264 260 256 253 251 251 251 249 247 245 244 245 244 242 241 242 246 246 241 238 238 239 240 241 240 241 244 245 244 244 244 244 244 244 246 249 253 255 257 257 256 256 257 258 259 262 264 261 258 257 256 254 254 254 254 256 256 257 258 260 261 262 263 264 265 266 268 269 271 272 274 275
285 287 290 291 292 291 289 288 285 280 275 270 269 270 270 267 262 257 255 252 250 248 246 245 246 246 243 241 242 245 247 246 244 242 242 241 238 235 238 244 244 242 243 243 243 243 244 246 250 254 256 257 256 255 254 254 255 256 257 258 257 257 259 258 256 255 255 255 257 259 260 262 263 265 266 267 268 270 271 272 273 273 274 274 275
284 283 283 284 285 286 286 286 286 284 281 278 274 273 272 271 268 265 260 255 252 249 248 247 247 247 246 244 243 244 246 246 245 245 244 243 238 233 238 246 247 245 245 243 242 243 243 245 249 253 256 256 256 257 256 254 253 252 251 252 254 257 258 258 257 257 258 258 260 262 264 266 266 267 268 270 271 272 272 273 273 274 275 275 275
287 285 284 281 279 278 278 278 279 281 281 281 279 277 275 274 273 270 266 262 258 253 248 246 246 247 248 248 246 245 247 247 246 245 245 245 240 235 239 246 250 252 249 244 243 244 244 244 247 252 254 254 256 257 255 251 249 249 249 250 253 256 257 257 257 258 260 261 262 264 265 267 267 268 269 270 270 270 271 271 273 274 275 275 275
290 290 289 287 283 280 276 274 274 276 277 279 280 279 279 278 276 274 270 265 262 257 250 246 246 246 247 248 246 246 249 249 247 245 246 246 241 237 237 239 246 254 251 242 243 245 244 243 247 250 252 250 248 248 249 250 250 247 249 252 255 255 253 253 256 259 261 262 263 265 266 266 267 267 267 269 270 271 273 274 276 277 277 277 277
290 291 292 292 290 288 284 280 278 276 276 278 280 281 282 282 280 279 275 269 264 259 254 250 247 246 246 246 245 245 249 249 246 246 247 246 242 239 236 235 242 251 247 240 243 244 241 242 245 248 249 248 246 246 248 253 255 252 251 254 255 252 250 252 256 259 260 262 264 266 266 266 267 268 270 272 274 275 275 275 276 277 277 276 276
290 290 291 292 292 292 291 288 285 281 278 277 277 278 280 281 281 280 278 273 267 261 257 251 247 245 246 247 244 243 246 247 244 245 247 246 243 239 236 236 241 246 244 244 246 244 240 242 246 248 248 247 247 248 248 251 255 255 254 252 251 251 252 256 258 259 261 264 265 266 266 267 269 271 272 273 272 271 272 273 275 277 276 276 276
289 289 289 289 290 291 291 291 289 286 283 280 277 276 277 280 282 280 276 274 270 265 259 252 248 246 246 246 241 238 241 245 244 245 247 246 244 242 239 237 238 241 243 247 248 245 242 244 248 249 249 248 248 248 249 251 253 255 254 252 251 252 253 255 257 260 262 264 265 266 267 268 269 270 270 269 269 271 275 278 280 280 280 279 279
285 285 286 286 286 286 287 289 289 289 288 286 283 281 279 281 284 284 281 275 269 264 258 252 248 246 247 246 239 233 237 244 244 243 245 245 245 245 243 240 238 238 241 243 245 244 244 248 251 250 250 250 250 248 248 250 251 254 255 254 252 252 252 254 257 260 262 264 266 267 267 267 268 269 269 270 271 275 278 280 281 282 282 281 280
280 281 283 283 283 282 282 283 285 287 288 288 287 286 284 284 286 288 288 280 268 261 257 252 248 247 247 245 238 233 235 242 243 240 240 243 245 245 243 240 237 237 239 241 242 243 244 248 250 250 250 252 251 249 248 248 249 251 252 251 249 250 252 256 259 262 264 265 266 266 266 266 267 269 271 273 275 277 278 280 282 283 282 280 279
277 278 280 282 282 281 280 280 281 283 285 286 287 288 286 285 286 288 288 282 271 262 257 253 250 248 245 241 239 236 236 240 241 240 239 240 243 244 243 239 237 238 239 240 241 242 244 247 247 247 250 252 252 250 249 248 248 248 248 249 249 251 255 258 262 264 265 265 265 265 266 266 268 270 273 276 278 279 280 282 284 283 282 281 280
277 279 280 280 280 280 279 279 280 282 283 283 285 286 287 286 286 288 288 285 279 272 264 256 251 248 241 235 234 235 236 239 240 241 240 239 240 242 241 238 237 238 240 242 243 244 246 248 247 245 248 252 253 252 251 251 250 249 249 250 251 254 258 261 263 264 265 266 266 267 268 270 272 274 276 277 278 279 281 283 284 283 282 281 281
277 279 281 281 280 278 277 278 279 280 281 282 282 284 285 286 286 287 287 287 285 280 275 267 257 248 237 229 228 229 231 237 243 243 241 239 239 240 240 238 238 240 243 245 247 251 253 251 249 248 249 251 253 253 252 253 253 253 252 253 255 257 259 261 264 265 266 267 268 269 271 273 276 277 277 276 276 278 280 282 281 280 281 282 283
278 278 279 280 279 278 276 276 276 277 277 278 279 280 282 284 286 286 286 289 288 283 280 280 271 255 239 229 227 228 228 233 240 242 240 239 239 239 239 237 238 243 245 241 238 246 253 252 249 248 249 251 255 257 257 255 255 255 255 256 257 258 260 262 264 265 266 267 268 270 271 273 275 276 275 274 275 278 279 278 278 280 283 285 285
278 277 277 277 277 277 276 274 274 274 275 275 276 278 279 281 283 284 284 285 285 281 277 279 284 271 245 231 230 231 231 231 234 235 235 235 235 238 239 237 239 247 250 243 236 241 248 249 249 250 251 252 254 254 254 254 253 254 255 257 257 257 259 261 263 265 268 272 273 274 274 274 274 273 272 273 275 278 278 276 277 281 284 285 285
277 276 276 276 276 276 276 275 274 273 273 272 273 274 277 279 281 281 281 281 280 279 277 276 281 283 260 238 233 235 235 234 232 229 229 230 232 236 240 240 242 247 248 243 241 245 248 249 249 251 252 253 250 246 246 250 254 256 257 258 258 258 261 265 269 271 273 275 275 274 274 273 272 271 272 274 276 277 276 277 280 283 284 285 285
275 275 275 276 276 276 276 277 276 274 273 271 270 270 273 277 280 280 279 280 279 278 279 278 278 280 278 261 244 238 236 236 234 231 231 232 234 239 245 248 249 247 242 239 241 244 246 247 247 247 248 249 249 246 245 249 255 259 261 261 261 264 268 271 272 271 270 268 268 268 269 270 272 273 274 275 275 276 277 279 282 283 284 285 285
274 274 274 274 275 275 276 276 276 275 273 272 270 269 269 272 276 278 278 278 278 276 275 277 277 276 277 274 258 244 239 238 240 240 240 241 243 246 250 252 252 249 244 242 242 242 244 247 249 249 248 247 246 246 246 249 256 261 264 265 265 267 269 269 268 266 265 264 265 266 268 271 272 273 273 273 275 277 280 282 283 284 284 285 286
272 272 272 272 272 273 273 274 274 274 273 272 270 269 269 268 270 273 275 275 274 273 271 271 270 269 266 264 260 254 249 246 245 246 247 249 253 255 252 249 248 249 250 249 247 248 252 256 258 257 254 251 248 245 246 251 255 259 261 263 264 265 265 265 264 263 262 262 263 265 267 269 269 270 272 275 278 281 282 283 284 285 286 287 287
272 272 272 272 271 270 270 270 271 272 273 273 271 269 269 269 268 269 271 271 269 267 265 262 259 257 254 251 250 251 253 253 252 253 254 257 261 263 259 254 252 254 257 258 257 260 266 269 267 265 264 262 257 253 252 256 258 258 257 257 259 261 264 265 263 260 258 259 261 264 266 268 269 272 275 278 281 282 282 283 284 285 286 287 288
271 271 271 271 271 270 268 267 268 269 271 272 273 271 269 269 269 268 269 270 267 263 258 254 251 250 250 247 245 244 243 245 250 255 258 259 261 262 261 259 258 259 262 266 268 270 273 273 270 268 267 267 266 262 259 260 261 260 258 257 258 259 262 262 260 257 257 260 263 266 268 270 272 274 277 279 280 280 280 282 283 285 286 287 288
268 269 269 270 270 270 269 267 266 266 267 269 272 273 271 270 269 268 267 268 266 261 254 249 248 248 248 246 245 243 240 238 239 244 249 253 256 258 258 259 260 262 265 268 268 268 267 267 264 262 262 264 265 264 262 261 260 258 257 257 257 257 257 257 257 258 260 262 265 267 270 272 274 276 277 278 278 279 280 282 284 285 286 287 288
268 268 267 267 267 268 268 268 267 266 265 266 268 270 271 269 267 266 265 265 265 262 257 252 249 248 247 245 243 243 241 239 239 240 243 246 250 254 256 257 259 262 265 266 264 261 259 258 258 258 260 263 264 262 260 257 255 253 253 254 255 255 256 257 259 261 263 265 268 271 273 274 275 275 276 277 278 280 282 283 284 285 286 287 288
271 270 269 268 267 266 266 266 266 265 265 264 264 265 266 265 264 262 260 259 260 260 258 254 249 247 246 243 242 242 243 243 244 245 247 249 250 252 253 253 254 256 259 261 259 255 253 254 256 258 260 261 260 256 253 249 247 248 251 253 256 259 262 264 266 267 269 271 273 274 275 274 275 275 276 278 279 281 282 283 284 285 286 287 288
272 272 271 270 269 268 267 266 265 265 264 264 264 264 263 262 261 259 256 254 254 254 252 249 246 245 245 245 244 243 244 245 247 249 250 251 252 252 253 253 253 253 254 256 256 254 253 254 256 255 254 253 251 250 250 249 248 250 252 255 260 264 267 270 271 272 273 274 274 274 273 274 275 277 278 279 280 281 283 283 284 285 286 287 289
272 272 271 271 270 269 268 268 268 267 265 265 265 265 264 263 260 258 255 252 251 250 249 248 246 244 243 245 248 248 248 248 248 249 250 251 251 251 253 256 257 254 252 252 252 251 250 250 249 248 248 248 249 250 253 256 258 260 261 263 265 267 269 270 271 271 271 271 272 273 274 275 277 278 279 280 281 282 282 283 284 285 286 288 289
276 273 272 271 270 269 268 267 267 267 267 266 266 266 266 265 263 260 256 254 252 251 250 249 248 245 243 244 247 250 250 249 249 249 249 249 248 249 253 256 253 247 245 247 249 252 254 254 252 251 251 251 251 252 255 259 262 264 265 266 267 267 268 268 268 268 270 271 272 274 275 276 277 278 279 280 280 281 282 283 285 286 287 289 291
283 280 276 274 272 271 269 267 265 265 265 265 266 267 268 269 267 265 261 258 255 254 253 251 251 249 246 243 243 246 247 246 246 246 247 247 246 246 248 251 250 247 247 252 260 265 266 262 257 254 253 253 254 256 259 263 265 267 268 268 268 267 266 266 267 269 270 271 272 273 274 275 276 277 278 279 280 281 283 284 285 287 289 291 294
296 292 287 282 278 275 273 271 268 265 263 263 263 264 266 267 268 268 267 264 261 258 256 254 253 253 250 247 244 243 244 244 244 245 245 246 248 247 247 248 252 256 259 261 263 263 260 256 255 256 258 260 263 266 268 270 271 272 272 272 272 272 271 270 270 270 270 271 271 272 273 274 275 276 277 279 280 282 283 285 287 290 292 294 296
314 309 303 297 291 285 281 276 272 268 265 263 262 262 261 262 264 265 266 266 265 262 259 255 253 251 251 251 248 246 245 246 246 247 247 248 249 251 251 251 252 256 260 261 258 255 254 256 260 262 263 264 266 269 271 272 273 273 272 271 272 272 271 270 269 269 269 270 271 272 273 274 275 276 278 279 281 283 286 288 291 292 294 296 298
327 323 319 313 307 301 294 287 281 274 269 265 263 261 260 260 260 261 261 261 262 263 262 259 255 252 251 251 249 247 247 249 250 250 250 251 251 251 253 254 253 254 255 256 256 257 260 264 266 267 267 268 269 270 271 272 273 272 271 269 268 267 267 267 267 267 268 269 270 272 273 274 276 277 280 282 284 287 289 291 293 294 296 298 299
335 333 330 326 320 314 308 302 294 287 279 273 268 264 262 261 261 261 260 259 258 259 260 260 258 256 254 254 252 250 249 252 252 250 249 249 250 250 251 253 255 256 258 259 261 263 265 267 268 270 271 272 273 273 273 272 271 270 268 266 265 265 266 267 267 268 269 270 271 272 274 276 278 281 283 286 288 290 291 293 294 296 297 298 299
343 341 339 336 332 326 321 314 308 301 295 287 279 273 269 266 264 263 263 262 260 259 260 260 260 258 256 255 254 253 252 253 254 254 252 250 250 250 250 252 254 256 259 261 263 265 267 268 269 271 271 272 272 272 272 271 270 269 268 267 266 266 267 267 268 269 269 270 272 274 277 280 282 285 287 289 290 291 293 294 296 297 298 299 299
348 348 347 345 342 338 333 327 320 314 308 301 295 288 281 275 271 268 267 267 266 265 264 263 263 263 260 258 256 255 254 254 254 255 256 255 255 254 254 254 256 257 259 261 263 265 267 268 269 270 270 271 272 272 272 271 270 269 268 267 267 266 267 267 268 269 271 273 276 279 281 284 286 288 289 291 292 293 294 296 297 298 299 300 299
351 351 351 351 350 348 344 340 334 328 321 314 308 302 296 290 284 277 273 270 269 269 269 268 268 267 265 263 261 259 258 257 256 255 255 255 255 255 255 255 256 257 259 260 261 262 263 264 265 266 267 268 268 268 267 267 266 265 265 265 265 266 267 269 270 273 275 278 280 283 284 286 288 289 291 292 293 295 296 298 299 299 299 299 299
355 352 352 352 353 354 352 350 347 343 337 330 322 315 309 303 298 293 287 281 275 272 271 271 271 270 269 266 264 262 260 259 258 258 258 257 256 255 255 254 254 255 255 256 257 258 258 259 260 261 261 261 261 261 260 260 260 261 262 264 265 267 269 272 274 277 279 281 283 285 286 288 289 291 292 294 295 296 297 298 299 299 299 299 299
0 356 354 352 353 354 354 355 354 352 350 346 340 333 325 316 309 304 299 295 290 284 278 275 273 272 271 269 266 264 262 261 260 259 258 258 258 257 257 256 256 255 255 255 255 255 256 256 256 256 257 257 258 258 259 259 261 262 264 266 268 270 272 274 276 278 280 282 284 286 288 289 291 292 293 294 295 296 298 299 299 300 300 300 300
4 1 357 354 353 352 352 353 353 353 353 353 351 348 343 335 326 317 309 303 299 295 291 286 282 278 275 273 271 267 264 263 262 262 261 260 260 259 258 257 257 256 256 255 255 255 255 255 255 256 256 257 257 258 260 261 263 264 266 268 270 271 273 275 277 279 282 284 286 287 289 290 291 292 293 294 295 297 299 300 301 302 302 302 301
6 4 1 358 354 352 351 350 350 350 350 351 351 351 349 346 341 334 325 317 308 302 298 295 291 287 283 280 277 274 270 267 265 264 264 264 264 263 263 262 261 260 259 258 258 257 257 257 257 258 258 259 260 261 262 263 264 266 267 268 269 271 273 275 278 281 283 285 286 288 289 290 291 292 293 295 297 299 301 303 304 305 304 303 303
6 5 3 1 357 354 351 349 348 347 347 347 347 348 347 347 345 341 336 329 320 312 305 300 296 293 289 284 281 278 277 274 271 268 266 264 264 264 264 264 264 263 263 263 262 262 262 262 262 262 262 262 262 262 263 263 264 264 265 266 267 270 272 275 278 281 282 284 285 287 288 289 291 292 294 296 299 302 304 306 307 307 306 305 304
6 5 4 2 359 356 353 349 347 346 345 345 344 344 344 344 343 342 339 334 327 320 312 306 301 298 295 290 285 281 278 277 275 273 271 268 266 265 264 264 263 263 262 262 262 262 262 262 262 262 262 262 262 262 262 261 261 261 262 263 265 268 271 274 277 279 281 283 285 286 288 290 292 293 295 297 300 303 306 308 309 309 309 307 306
3 3 2 1 359 357 354 351 348 345 344 344 343 343 343 342 341 340 339 337 332 325 317 310 305 301 299 296 292 287 282 279 277 275 273 271 269 267 265 264 263 262 261 260 259 258 258 258 258 258 258 258 258 258 257 257 257 258 259 261 263 266 269 271 274 277 280 283 286 288 290 291 292 293 294 296 300 303 306 309 311 311 311 310 308
360 359 359 359 358 356 354 351 349 346 344 343 342 342 341 341 340 339 338 336 334 328 321 312 305 301 299 298 295 291 286 283 279 277 274 272 269 268 266 264 262 260 258 256 255 254 253 253 253 253 254 254 254 254 253 254 254 256 257 259 262 264 267 269 273 276 280 284 288 291 292 292 292 292 293 296 299 302 306 309 311 312 312 312 311
357 356 355 355 355 354 353 351 349 347 345 343 342 341 340 340 339 339 337 336 334 330 323 315 307 301 298 297 296 294 290 286 282 279 277 274 271 268 265 263 261 259 256 253 251 250 249 249 249 249 249 249 249 249 249 250 252 254 256 258 260 263 265 268 272 276 281 286 289 292 292 292 291 291 293 295 298 301 304 307 310 313 314 314 313
Height
5752 5751 5750 5749 5748 5747 5746 5746 5746 5748 5750 5752 5753 5754 5754 5755 5756 5756 5758 5759 5760 5761 5762 5763 5764 5766 5767 5768 5770 5772 5772 5774 5774 5776 5776 5778 5779 5780 5782 5782 5783 5784 5784 5786 5786 5786 5787 5788 5788 5788 5787 5788 5788 5788 5789 5790 5790 5791 5792 5792 5793 5794 5793 5793 5793 5793 5794 5793 5793 5793 5794 5794 5794 5794 5794 5795 5795 5795 5795 5795 5795 5795 5795 5796 5796
5748 5748 5746 5746 5744 5743 5742 5743 5744 5746 5748 5748 5750 5751 5752 5752 5753 5754 5755 5756 5758 5758 5760 5761 5762 5764 5765 5766 5768 5768 5770 5770 5771 5772 5774 5774 5776 5777 5778 5779 5780 5780 5782 5782 5783 5784 5784 5784 5785 5784 5784 5785 5786 5786 5786 5786 5787 5788 5789 5790 5790 5790 5790 5790 5790 5790 5791 5791 5791 5791 5792 5792 5792 5792 5792 5792 5792 5792 5792 5792 5792 5792 5792 5792 5793
5746 5744 5743 5742 5741 5740 5740 5740 5742 5743 5744 5746 5748 5748 5749 5749 5750 5751 5752 5753 5754 5756 5757 5758 5760 5761 5762 5764 5765 5766 5766 5766 5768 5768 5770 5771 5772 5774 5774 5776 5776 5778 5778 5779 5780 5780 5782 5782 5782 5782 5782 5782 5783 5783 5783 5784 5784 5784 5786 5786 5787 5788 5788 5788 5788 5788 5788 5789 5789 5788 5789 5790 5790 5790 5790 5790 5790 5790 5790 5790 5790 5790 5790 5790 5790
5744 5742 5740 5740 5739 5738 5736 5738 5739 5740 5742 5743 5744 5746 5746 5746 5747 5748 5749 5750 5752 5752 5754 5756 5756 5758 5759 5760 5760 5762 5762 5762 5764 5764 5766 5767 5768 5770 5771 5772 5772 5774 5775 5776 5777 5778 5778 5778 5779 5779 5779 5780 5780 5780 5780 5780 5780 5781 5782 5783 5784 5784 5784 5785 5785 5785 5786 5786 5786 5786 5787 5787 5787 5788 5788 5787 5787 5786 5786 5786 5786 5786 5787 5787 5787
5742 5740 5738 5738 5737 5736 5735 5735 5736 5738 5739 5740 5741 5742 5743 5744 5745 5746 5746 5748 5748 5750 5752 5752 5754 5754 5755 5756 5756 5757 5758 5758 5760 5760 5762 5764 5764 5766 5767 5768 5769 5770 5772 5773 5774 5775 5776 5776 5776 5776 5776 5776 5777 5778 5778 5778 5778 5778 5778 5780 5781 5782 5782 5782 5782 5782 5783 5784 5784 5784 5784 5784 5784 5784 5784 5784 5784 5784 5784 5784 5784 5784 5784 5783 5783
5740 5740 5738 5736 5735 5734 5734 5734 5734 5736 5736 5738 5738 5740 5740 5742 5743 5744 5744 5744 5746 5746 5748 5749 5750 5750 5751 5752 5752 5753 5754 5754 5756 5756 5758 5760 5761 5762 5763 5764 5766 5767 5768 5770 5771 5772 5772 5773 5772 5772 5772 5773 5774 5775 5775 5775 5775 5776 5776 5777 5778 5779 5780 5780 5780 5780 5780 5780 5780 5781 5781 5782 5782 5781 5781 5780 5780 5780 5780 5780 5780 5780 5780 5780 5780
5739 5738 5737 5736 5734 5734 5732 5732 5732 5734 5734 5736 5736 5738 5738 5740 5740 5740 5741 5742 5742 5744 5744 5745 5746 5746 5748 5748 5749 5750 5750 5751 5752 5752 5754 5756 5756 5758 5760 5761 5762 5764 5765 5766 5768 5768 5769 5770 5770 5770 5770 5770 5771 5772 5772 5772 5773 5773 5774 5774 5776 5776 5776 5776 5777 5777 5778 5778 5778 5778 5778 5778 5778 5778 5778 5778 5778 5777 5777 5776 5776 5776 5776 5776 5776
5738 5736 5736 5735 5734 5734 5732 5732 5732 5732 5734 5734 5734 5735 5736 5736 5737 5738 5738 5739 5740 5740 5740 5741 5742 5742 5744 5744 5745 5746 5748 5748 5748 5750 5750 5752 5753 5754 5756 5758 5758 5760 5762 5762 5764 5764 5766 5766 5766 5766 5767 5768 5768 5769 5770 5770 5770 5771 5772 5772 5771 5772 5772 5773 5774 5774 5774 5774 5774 5774 5774 5774 5774 5774 5774 5774 5774 5774 5774 5774 5774 5774 5774 5773 5772
5735 5734 5734 5734 5733 5732 5732 5732 5732 5732 5732 5733 5734 5734 5734 5734 5734 5734 5734 5736 5736 5736 5737 5738 5738 5739 5740 5740 5742 5742 5744 5744 5745 5746 5747 5748 5749 5750 5752 5754 5756 5756 5758 5758 5760 5760 5762 5763 5764 5764 5764 5764 5766 5766 5767 5768 5768 5769 5770 5768 5766 5768 5768 5769 5770 5770 5770 5771 5772 5772 5772 5772 5772 5772 5771 5771 5770 5770 5770 5770 5770 5770 5770 5770 5768
5733 5732 5732 5732 5732 5731 5730 5730 5730 5730 5730 5731 5731 5732 5731 5731 5730 5730 5731 5732 5732 5732 5734 5734 5735 5736 5737 5738 5738 5739 5740 5740 5742 5742 5743 5744 5746 5748 5749 5750 5752 5752 5754 5754 5756 5757 5758 5760 5760 5760 5761 5762 5762 5763 5764 5764 5764 5766 5766 5764 5764 5764 5764 5765 5766 5766 5767 5768 5768 5768 5768 5768 5768 5768 5768 5768 5768 5768 5767 5767 5766 5766 5766 5766 5765
5731 5730 5730 5730 5730 5730 5729 5729 5729 5728 5728 5728 5728 5728 5728 5728 5728 5728 5728 5728 5728 5728 5729 5730 5731 5732 5734 5734 5734 5735 5736 5736 5738 5738 5738 5740 5742 5744 5744 5746 5747 5748 5749 5750 5752 5753 5754 5756 5756 5757 5758 5759 5760 5760 5759 5760 5760 5762 5762 5762 5761 5761 5762 5762 5763 5763 5764 5764 5764 5764 5764 5764 5764 5764 5764 5764 5764 5764 5764 5764 5763 5762 5762 5762 5761
5729 5728 5728 5728 5728 5728 5728 5727 5727 5726 5726 5726 5725 5725 5725 5725 5724 5724 5724 5724 5724 5724 5724 5724 5726 5728 5729 5730 5730 5731 5732 5732 5734 5734 5735 5736 5738 5739 5740 5742 5743 5744 5745 5746 5748 5749 5750 5752 5752 5754 5754 5756 5757 5756 5754 5754 5756 5758 5758 5758 5758 5758 5758 5759 5760 5760 5760 5760 5760 5760 5760 5760 5760 5760 5761 5761 5761 5760 5760 5760 5760 5759 5758 5758 5756
5726 5726 5726 5726 5726 5725 5725 5725 5724 5724 5724 5723 5722 5722 5722 5722 5722 5720 5720 5720 5720 5720 5720 5720 5722 5722 5724 5726 5725 5726 5728 5728 5730 5730 5731 5732 5734 5734 5736 5737 5738 5740 5741 5742 5744 5745 5746 5748 5748 5750 5751 5752 5752 5752 5752 5752 5752 5754 5755 5755 5755 5755 5756 5756 5756 5756 5756 5756 5756 5756 5756 5756 5756 5757 5757 5757 5757 5756 5756 5756 5756 5755 5754 5754 5752
5724 5724 5724 5723 5722 5722 5722 5722 5722 5722 5721 5720 5720 5719 5718 5718 5718 5718 5716 5716 5716 5716 5716 5717 5718 5718 5720 5721 5721 5722 5723 5724 5724 5726 5728 5728 5729 5730 5732 5733 5734 5736 5738 5739 5740 5741 5742 5744 5744 5746 5747 5748 5748 5748 5749 5750 5750 5750 5752 5752 5752 5752 5752 5752 5752 5752 5752 5752 5752 5752 5752 5753 5753 5753 5753 5753 5752 5752 5752 5751 5751 5750 5750 5748 5748
5722 5721 5720 5720 5720 5720 5718 5718 5718 5718 5718 5717 5717 5716 5716 5715 5714 5714 5713 5712 5712 5712 5713 5714 5714 5715 5716 5717 5717 5717 5718 5720 5720 5722 5724 5724 5725 5726 5727 5728 5730 5732 5734 5735 5736 5737 5738 5740 5740 5742 5742 5743 5744 5744 5746 5746 5747 5748 5748 5748 5749 5748 5748 5748 5748 5748 5749 5749 5749 5749 5749 5749 5749 5749 5748 5748 5748 5748 5747 5747 5746 5746 5745 5744 5742
5718 5718 5717 5718 5718 5717 5716 5715 5714 5714 5714 5714 5714 5714 5713 5712 5712 5710 5709 5708 5708 5709 5709 5710 5710 5711 5712 5714 5713 5712 5714 5715 5716 5718 5720 5720 5720 5722 5722 5724 5726 5728 5729 5730 5732 5733 5734 5735 5736 5737 5738 5738 5740 5740 5742 5742 5744 5744 5744 5745 5745 5744 5744 5744 5744 5745 5746 5746 5746 5746 5745 5745 5745 5744 5744 5744 5744 5743 5742 5742 5742 5740 5740 5738 5737
5714 5714 5714 5714 5714 5714 5713 5712 5711 5710 5710 5710 5710 5710 5710 5709 5708 5707 5706 5705 5704 5705 5705 5706 5706 5707 5708 5710 5708 5708 5709 5710 5711 5714 5716 5716 5716 5718 5718 5720 5721 5722 5724 5726 5728 5728 5730 5730 5732 5732 5733 5734 5736 5737 5738 5738 5740 5740 5740 5741 5741 5740 5740 5740 5741 5742 5742 5742 5742 5742 5741 5740 5740 5740 5740 5740 5739 5738 5738 5737 5736 5736 5734 5733 5732
5710 5710 5710 5710 5710 5710 5710 5709 5708 5708 5707 5706 5706 5706 5706 5706 5706 5704 5704 5702 5702 5702 5702 5702 5702 5703 5704 5705 5704 5703 5704 5706 5707 5708 5710 5712 5712 5714 5714 5715 5716 5718 5720 5721 5722 5724 5725 5726 5728 5728 5729 5730 5732 5732 5734 5734 5735 5736 5736 5736 5736 5736 5736 5737 5737 5738 5738 5737 5737 5736 5736 5736 5736 5736 5735 5734 5734 5734 5733 5732 5732 5731 5730 5728 5727
5706 5706 5706 5706 5706 5706 5706 5706 5706 5705 5704 5703 5702 5702 5702 5702 5702 5702 5700 5700 5698 5698 5698 5698 5698 5699 5700 5700 5698 5698 5700 5701 5703 5704 5706 5707 5708 5710 5710 5712 5713 5714 5716 5717 5718 5720 5722 5722 5724 5724 5725 5726 5727 5728 5729 5730 5730 5730 5731 5731 5730 5731 5732 5733 5733 5733 5732 5732 5732 5732 5732 5731 5731 5731 5730 5730 5730 5729 5728 5728 5727 5726 5725 5724 5723
5701 5701 5700 5700 5701 5702 5702 5702 5702 5702 5701 5700 5699 5699 5699 5698 5698 5698 5697 5696 5696 5696 5696 5694 5694 5694 5694 5693 5692 5692 5694 5697 5700 5700 5700 5702 5704 5705 5706 5708 5709 5710 5713 5716 5716 5716 5718 5718 5720 5720 5721 5722 5722 5724 5724 5724 5724 5724 5724 5725 5726 5727 5728 5728 5728 5728 5728 5727 5727 5726 5726 5726 5726 5726 5726 5725 5725 5724 5724 5723 5722 5722 5720 5720 5719
5696 5696 5696 5696 5696 5696 5697 5698 5697 5697 5698 5697 5696 5695 5695 5695 5694 5694 5694 5693 5692 5692 5692 5690 5689 5688 5687 5686 5687 5688 5690 5694 5694 5694 5696 5699 5700 5700 5702 5704 5705 5707 5710 5713 5714 5714 5714 5714 5715 5716 5716 5718 5718 5719 5719 5719 5718 5718 5719 5720 5721 5722 5722 5723 5723 5723 5722 5722 5722 5722 5722 5721 5721 5720 5720 5720 5719 5718 5718 5718 5717 5716 5716 5714 5713
5691 5691 5690 5690 5690 5690 5691 5692 5692 5692 5692 5693 5692 5691 5691 5691 5692 5691 5690 5690 5690 5688 5688 5687 5686 5684 5682 5682 5684 5684 5686 5689 5689 5690 5692 5694 5694 5696 5698 5699 5701 5703 5705 5708 5710 5710 5710 5710 5710 5710 5712 5714 5714 5714 5714 5714 5714 5714 5714 5715 5716 5717 5718 5718 5718 5717 5716 5716 5716 5716 5716 5715 5715 5714 5714 5714 5713 5712 5712 5712 5711 5710 5710 5708 5707
5686 5686 5685 5685 5686 5685 5685 5686 5686 5687 5687 5688 5688 5688 5686 5686 5687 5687 5686 5686 5686 5686 5684 5684 5682 5681 5680 5680 5680 5681 5682 5684 5685 5686 5688 5689 5690 5692 5694 5695 5696 5699 5700 5701 5702 5704 5704 5704 5705 5706 5707 5708 5709 5709 5708 5708 5708 5709 5709 5710 5711 5712 5712 5712 5712 5712 5711 5710 5710 5710 5709 5709 5708 5708 5708 5708 5707 5706 5706 5706 5705 5704 5703 5702 5700
5680 5680 5680 5680 5680 5680 5680 5680 5680 5681 5682 5682 5684 5684 5682 5682 5682 5682 5682 5682 5682 5682 5681 5680 5680 5678 5678 5678 5678 5678 5679 5680 5682 5684 5686 5686 5687 5688 5690 5692 5692 5694 5695 5696 5696 5698 5698 5699 5700 5700 5701 5702 5703 5704 5704 5704 5704 5704 5704 5705 5706 5706 5706 5706 5706 5706 5706 5705 5704 5704 5703 5703 5703 5702 5702 5702 5702 5701 5700 5700 5699 5698 5696 5696 5694
5675 5674 5674 5674 5674 5674 5674 5674 5674 5675 5676 5676 5678 5678 5678 5678 5677 5677 5678 5678 5678 5677 5677 5677 5676 5676 5676 5676 5676 5676 5677 5678 5680 5681 5682 5684 5685 5686 5687 5688 5688 5690 5690 5690 5691 5692 5693 5694 5694 5696 5696 5696 5697 5698 5698 5698 5698 5698 5698 5699 5700 5700 5700 5700 5700 5700 5700 5699 5698 5698 5698 5698 5698 5697 5697 5696 5696 5696 5694 5694 5692 5692 5690 5688 5687
5670 5669 5668 5668 5668 5669 5669 5668 5668 5668 5670 5670 5672 5672 5674 5674 5672 5672 5673 5674 5674 5673 5672 5673 5673 5673 5674 5674 5674 5674 5674 5675 5676 5677 5678 5680 5681 5682 5682 5683 5684 5684 5685 5686 5686 5687 5688 5688 5690 5690 5691 5692 5692 5692 5693 5694 5694 5693 5693 5694 5694 5694 5694 5694 5694 5693 5693 5693 5692 5692 5692 5692 5692 5692 5691 5690 5690 5689 5688 5687 5686 5684 5683 5682 5680
5664 5664 5663 5663 5663 5663 5664 5664 5664 5663 5663 5664 5664 5666 5668 5668 5667 5667 5668 5668 5670 5670 5669 5669 5670 5670 5670 5671 5671 5672 5672 5672 5673 5674 5675 5676 5676 5676 5677 5678 5679 5680 5680 5681 5682 5682 5683 5684 5684 5684 5685 5686 5687 5688 5688 5688 5688 5688 5688 5688 5688 5688 5688 5688 5688 5688 5688 5688 5687 5687 5686 5686 5686 5686 5684 5684 5683 5682 5682 5680 5680 5678 5677 5676 5674
5658 5658 5658 5657 5657 5657 5657 5658 5658 5658 5657 5657 5657 5659 5661 5662 5661 5662 5662 5663 5664 5666 5666 5666 5666 5666 5666 5668 5668 5668 5668 5669 5670 5670 5670 5671 5672 5672 5672 5673 5674 5675 5676 5676 5676 5677 5678 5678 5678 5679 5680 5680 5680 5681 5682 5682 5681 5681 5681 5682 5682 5682 5682 5682 5682 5682 5682 5682 5682 5682 5681 5680 5680 5679 5678 5678 5677 5676 5676 5674 5674 5672 5672 5670 5669
5653 5652 5652 5652 5652 5652 5652 5652 5652 5652 5652 5652 5650 5651 5654 5655 5656 5656 5656 5657 5658 5660 5660 5661 5662 5662 5662 5663 5664 5664 5664 5664 5664 5665 5666 5666 5666 5667 5668 5668 5669 5670 5670 5670 5670 5672 5672 5673 5674 5674 5674 5674 5674 5674 5674 5675 5675 5675 5676 5676 5676 5676 5676 5677 5677 5677 5676 5676 5676 5676 5675 5674 5674 5673 5672 5672 5671 5670 5670 5668 5668 5666 5666 5664 5663
5647 5646 5646 5646 5646 5646 5646 5646 5646 5646 5646 5646 5646 5645 5646 5648 5650 5650 5650 5651 5652 5652 5654 5656 5656 5657 5658 5658 5659 5660 5660 5660 5660 5660 5661 5661 5662 5662 5662 5663 5664 5664 5664 5665 5666 5666 5667 5668 5668 5668 5668 5668 5668 5668 5668 5668 5669 5670 5670 5670 5670 5671 5672 5672 5672 5672 5671 5671 5670 5670 5670 5668 5668 5667 5666 5666 5664 5664 5663 5662 5661 5660 5658 5658 5656
5640 5640 5640 5640 5640 5640 5640 5640 5640 5640 5640 5640 5640 5640 5640 5641 5642 5644 5644 5645 5646 5646 5648 5650 5650 5651 5652 5652 5654 5654 5654 5656 5656 5656 5656 5657 5657 5658 5658 5658 5658 5659 5660 5660 5660 5661 5662 5662 5662 5662 5662 5662 5662 5662 5662 5663 5664 5664 5664 5665 5666 5666 5666 5666 5666 5666 5666 5665 5665 5664 5664 5662 5662 5661 5660 5659 5658 5658 5657 5656 5654 5654 5652 5651 5650
5632 5632 5632 5632 5632 5633 5633 5634 5634 5634 5634 5634 5634 5634 5634 5635 5636 5638 5638 5639 5640 5642 5643 5644 5645 5646 5646 5647 5648 5648 5649 5650 5650 5651 5652 5652 5652 5652 5653 5653 5654 5654 5654 5654 5654 5655 5656 5656 5656 5656 5657 5658 5658 5658 5658 5658 5658 5659 5660 5660 5660 5660 5660 5660 5660 5660 5660 5659 5658 5658 5657 5656 5656 5655 5654 5653 5652 5652 5650 5650 5648 5648 5646 5644 5644
5625 5625 5624 5624 5624 5625 5626 5626 5626 5628 5628 5628 5628 5628 5628 5629 5630 5631 5632 5633 5634 5636 5637 5638 5639 5640 5641 5642 5642 5643 5644 5644 5645 5646 5646 5646 5647 5648 5648 5648 5648 5648 5648 5648 5648 5648 5650 5650 5651 5652 5652 5653 5654 5654 5654 5654 5654 5654 5654 5654 5654 5654 5654 5654 5654 5654 5653 5652 5652 5652 5651 5650 5650 5649 5648 5647 5646 5646 5644 5644 5642 5641 5640 5638 5637
5618 5618 5618 5617 5617 5618 5618 5618 5619 5620 5620 5620 5621 5622 5622 5623 5624 5625 5626 5627 5628 5629 5630 5632 5632 5634 5634 5636 5636 5637 5638 5639 5640 5640 5640 5641 5642 5642 5642 5643 5643 5642 5642 5642 5643 5644 5644 5646 5646 5647 5648 5648 5648 5648 5648 5648 5648 5648 5648 5648 5648 5648 5648 5648 5648 5648 5647 5646 5646 5646 5645 5644 5644 5642 5642 5641 5640 5640 5638 5638 5636 5635 5634 5632 5630
5614 5612 5612 5611 5610 5610 5610 5611 5612 5612 5612 5613 5614 5614 5616 5616 5617 5618 5620 5620 5622 5622 5624 5624 5626 5626 5628 5629 5630 5631 5632 5632 5634 5634 5635 5636 5636 5637 5638 5638 5639 5639 5639 5639 5639 5640 5640 5640 5641 5642 5642 5642 5642 5642 5642 5642 5642 5642 5642 5642 5642 5642 5642 5642 5642 5641 5641 5640 5640 5640 5639 5638 5638 5636 5636 5635 5634 5634 5632 5632 5630 5629 5628 5626 5624
5610 5609 5608 5606 5606 5605 5605 5605 5605 5606 5606 5606 5608 5608 5608 5610 5610 5611 5612 5614 5616 5616 5618 5618 5619 5620 5621 5622 5623 5624 5625 5626 5627 5628 5628 5630 5630 5631 5632 5633 5634 5634 5634 5634 5634 5634 5634 5635 5636 5636 5636 5636 5636 5636 5636 5636 5636 5636 5636 5636 5636 5636 5636 5636 5636 5636 5635 5634 5634 5633 5632 5632 5631 5630 5630 5629 5628 5628 5626 5625 5624 5622 5620 5618 5616
5608 5606 5604 5604 5602 5602 5600 5600 5600 5600 5600 5601 5602 5602 5602 5604 5604 5605 5606 5607 5608 5610 5611 5612 5613 5614 5614 5616 5616 5618 5618 5620 5620 5622 5622 5623 5624 5625 5626 5626 5627 5628 5628 5628 5628 5628 5628 5628 5628 5629 5629 5630 5630 5630 5630 5630 5630 5630 5630 5630 5630 5630 5630 5630 5630 5629 5628 5628 5627 5626 5626 5626 5625 5624 5624 5623 5622 5621 5620 5618 5617 5616 5614 5612 5610
5606 5604 5602 5601 5600 5598 5598 5596 5596 5596 5596 5596 5596 5597 5598 5598 5598 5600 5600 5601 5602 5604 5604 5606 5607 5608 5608 5608 5610 5611 5612 5614 5614 5615 5616 5616 5618 5618 5619 5620 5620 5621 5622 5622 5622 5622 5621 5622 5622 5622 5622 5623 5624 5624 5624 5624 5624 5624 5624 5624 5624 5624 5624 5623 5622 5622 5622 5621 5620 5620 5620 5620 5619 5618 5618 5617 5616 5615 5614 5612 5610 5608 5606 5604 5602
5604 5602 5600 5599 5598 5596 5595 5594 5593 5592 5592 5592 5592 5592 5592 5593 5594 5594 5595 5596 5596 5598 5598 5599 5600 5602 5602 5602 5603 5604 5606 5607 5608 5608 5609 5610 5610 5612 5612 5613 5614 5614 5614 5614 5614 5614 5614 5614 5615 5616 5616 5616 5617 5617 5618 5618 5618 5618 5618 5617 5616 5616 5616 5616 5616 5615 5615 5615 5614 5614 5614 5614 5613 5612 5612 5610 5610 5609 5608 5606 5604 5602 5600 5598 5596
5603 5602 5600 5598 5596 5594 5592 5592 5590 5590 5588 5588 5588 5588 5588 5588 5589 5590 5590 5590 5591 5592 5592 5593 5594 5594 5596 5596 5597 5598 5599 5600 5601 5602 5602 5603 5604 5604 5606 5606 5607 5607 5607 5608 5608 5608 5608 5608 5608 5609 5610 5610 5610 5610 5611 5611 5611 5610 5610 5610 5610 5610 5609 5609 5609 5609 5609 5609 5609 5608 5608 5608 5607 5606 5605 5604 5604 5602 5602 5600 5598 5596 5595 5593 5590
5602 5600 5598 5596 5594 5592 5591 5590 5588 5587 5586 5586 5584 5584 5584 5584 5584 5584 5585 5586 5586 5586 5587 5588 5588 5588 5589 5590 5591 5592 5592 5594 5594 5595 5596 5596 5597 5598 5599 5600 5600 5601 5601 5602 5601 5601 5602 5602 5602 5602 5603 5604 5604 5604 5604 5604 5604 5604 5604 5604 5604 5604 5604 5604 5604 5604 5604 5604 5603 5603 5602 5602 5601 5600 5600 5598 5598 5596 5596 5594 5593 5591 5589 5586 5584
5601 5600 5598 5596 5594 5592 5590 5588 5586 5586 5584 5583 5582 5582 5581 5580 5580 5580 5580 5580 5581 5582 5582 5582 5582 5582 5583 5584 5584 5586 5586 5587 5588 5588 5589 5590 5590 5591 5592 5592 5593 5594 5594 5594 5595 5595 5595 5596 5596 5596 5596 5597 5598 5598 5598 5598 5598 5598 5598 5598 5598 5598 5598 5598 5598 5598 5598 5598 5598 5597 5596 5596 5596 5594 5594 5593 5592 5591 5590 5590 5588 5586 5584 5581 5578
5600 5598 5597 5595 5594 5592 5590 5588 5586 5584 5582 5581 5580 5579 5578 5578 5577 5576 5576 5576 5576 5576 5576 5576 5577 5578 5578 5578 5579 5580 5580 5581 5582 5582 5582 5583 5584 5584 5585 5586 5586 5587 5588 5588 5588 5588 5588 5589 5590 5590 5591 5591 5592 5592 5592 5592 5592 5592 5592 5592 5592 5593 5593 5593 5593 5592 5592 5592 5592 5592 5591 5590 5590 5590 5589 5588 5587 5586 5585 5584 5582 5580 5578 5576 5573
5600 5598 5596 5594 5592 5591 5589 5588 5586 5584 5582 5580 5578 5577 5576 5575 5574 5574 5572 5572 5572 5572 5571 5571 5572 5572 5572 5572 5573 5574 5574 5575 5576 5576 5576 5577 5578 5578 5579 5580 5580 5580 5581 5582 5582 5582 5582 5583 5584 5584 5584 5585 5586 5586 5586 5586 5586 5586 5586 5587 5587 5588 5588 5588 5588 5588 5587 5587 5586 5586 5586 5586 5585 5584 5584 5584 5582 5581 5580 5578 5577 5575 5572 5570 5568
5600 5598 5596 5594 5592 5590 5588 5587 5585 5584 5582 5580 5578 5576 5574 5573 5572 5570 5570 5569 5568 5568 5567 5567 5566 5566 5567 5567 5567 5568 5568 5568 5569 5570 5570 5571 5572 5572 5573 5574 5574 5574 5575 5576 5576 5576 5576 5577 5578 5578 5579 5579 5580 5580 5580 5580 5580 5581 5582 5582 5582 5582 5582 5582 5582 5582 5582 5582 5582 5582 5581 5581 5580 5580 5580 5578 5578 5576 5575 5574 5572 5570 5568 5565 5563
5600 5598 5596 5593 5592 5590 5588 5586 5584 5582 5581 5579 5578 5576 5574 5572 5570 5569 5567 5566 5565 5564 5564 5563 5562 5562 5562 5562 5562 5562 5562 5562 5563 5564 5564 5565 5566 5566 5567 5568 5568 5569 5570 5570 5570 5571 5571 5572 5572 5572 5573 5574 5574 5574 5574 5575 5576 5576 5576 5577 5578 5578 5578 5578 5578 5578 5578 5578 5578 5578 5577 5576 5576 5576 5574 5574 5572 5572 5570 5568 5568 5566 5564 5561 5559
5600 5598 5596 5593 5591 5589 5587 5586 5584 5582 5580 5578 5576 5574 5573 5572 5570 5568 5566 5564 5562 5560 5560 5559 5558 5558 5558 5558 5558 5557 5557 5558 5558 5558 5558 5559 5560 5560 5561 5562 5562 5563 5564 5564 5565 5566 5566 5566 5567 5568 5568 5568 5569 5570 5570 5570 5571 5572 5572 5572 5573 5573 5574 5574 5574 5574 5574 5574 5574 5574 5573 5572 5572 5571 5570 5569 5568 5567 5566 5564 5563 5561 5560 5557 5555
5601 5598 5596 5593 5591 5588 5586 5584 5582 5580 5578 5577 5575 5573 5572 5570 5568 5566 5564 5562 5560 5558 5557 5556 5554 5554 5554 5554 5553 5553 5552 5553 5553 5553 5554 5554 5554 5554 5555 5556 5556 5557 5558 5558 5559 5560 5560 5561 5562 5562 5563 5564 5564 5565 5566 5566 5567 5568 5568 5568 5569 5569 5570 5570 5570 5570 5570 5570 5570 5570 5569 5568 5567 5566 5566 5564 5564 5563 5562 5560 5558 5557 5556 5554 5552
5602 5598 5596 5594 5590 5588 5586 5584 5582 5580 5578 5576 5574 5572 5570 5568 5566 5564 5562 5560 5558 5556 5554 5552 5552 5550 5550 5550 5549 5549 5548 5548 5549 5549 5550 5550 5550 5550 5550 5550 5551 5552 5552 5553 5554 5554 5556 5556 5556 5558 5558 5559 5560 5560 5561 5562 5562 5564 5564 5564 5565 5566 5566 5566 5566 5566 5566 5566 5566 5565 5564 5564 5563 5562 5562 5561 5560 5559 5558 5556 5554 5553 5552 5550 5548
5601 5598 5596 5593 5590 5588 5586 5583 5580 5578 5576 5574 5572 5570 5568 5566 5564 5561 5559 5558 5556 5554 5552 5550 5548 5548 5546 5546 5546 5545 5545 5545 5545 5545 5545 5546 5546 5546 5546 5546 5547 5548 5548 5548 5550 5550 5551 5552 5552 5553 5554 5555 5556 5556 5558 5558 5558 5560 5560 5561 5562 5562 5562 5562 5562 5562 5562 5562 5561 5560 5560 5560 5559 5558 5558 5557 5556 5556 5554 5553 5551 5550 5548 5546 5545
5600 5598 5595 5592 5590 5588 5585 5582 5580 5577 5575 5572 5570 5568 5566 5564 5562 5558 5556 5554 5552 5551 5550 5548 5546 5544 5544 5542 5542 5542 5542 5542 5542 5542 5542 5542 5542 5542 5542 5542 5543 5544 5544 5545 5546 5546 5547 5548 5548 5549 5550 5551 5552 5552 5554 5554 5555 5556 5556 5558 5558 5558 5558 5558 5558 5558 5558 5558 5557 5556 5556 5556 5555 5554 5554 5554 5552 5552 5551 5550 5548 5546 5545 5544 5542